,Coso Junction,Coso Junction
,PM10_1HR,PM10_1HR
,UG/M3,UG/M3
Date,Value,Null Code
01-Jun-2022 00:00,11.3,
01-Jun-2022 01:00,3.9,
01-Jun-2022 02:00,5.9,
01-Jun-2022 03:00,13,
01-Jun-2022 04:00,20.4,
01-Jun-2022 05:00,8.2,
01-Jun-2022 06:00,12.9,
01-Jun-2022 07:00,15,
01-Jun-2022 08:00,10.3,
01-Jun-2022 09:00,5.6,
01-Jun-2022 10:00,,BA
01-Jun-2022 11:00,,BA
01-Jun-2022 12:00,,BA
01-Jun-2022 13:00,4.5,
01-Jun-2022 14:00,18.3,
01-Jun-2022 15:00,8.3,
01-Jun-2022 16:00,12,
01-Jun-2022 17:00,7.4,
01-Jun-2022 18:00,7.9,
01-Jun-2022 19:00,11,
01-Jun-2022 20:00,15.9,
01-Jun-2022 21:00,22.4,
01-Jun-2022 22:00,23.4,
01-Jun-2022 23:00,25.4,
02-Jun-2022 00:00,19.3,
02-Jun-2022 01:00,22.5,
02-Jun-2022 02:00,21,
02-Jun-2022 03:00,18.8,
02-Jun-2022 04:00,18.8,
02-Jun-2022 05:00,26.3,
02-Jun-2022 06:00,23.8,
02-Jun-2022 07:00,22.9,
02-Jun-2022 08:00,21.6,
02-Jun-2022 09:00,19.4,
02-Jun-2022 10:00,26.6,
02-Jun-2022 11:00,23.8,
02-Jun-2022 12:00,23.5,
02-Jun-2022 13:00,23.5,
02-Jun-2022 14:00,22.6,
02-Jun-2022 15:00,23.3,
02-Jun-2022 16:00,23.9,
02-Jun-2022 17:00,27.4,
02-Jun-2022 18:00,26.1,
02-Jun-2022 19:00,22.7,
02-Jun-2022 20:00,20.4,
02-Jun-2022 21:00,23,
02-Jun-2022 22:00,21.3,
02-Jun-2022 23:00,19.1,
03-Jun-2022 00:00,18,
03-Jun-2022 01:00,15.3,
03-Jun-2022 02:00,12.2,
03-Jun-2022 03:00,13.2,
03-Jun-2022 04:00,15.5,
03-Jun-2022 05:00,12.5,
03-Jun-2022 06:00,10.1,
03-Jun-2022 07:00,12.5,
03-Jun-2022 08:00,7.7,
03-Jun-2022 09:00,8.5,
03-Jun-2022 10:00,11.3,
03-Jun-2022 11:00,9.9,
03-Jun-2022 12:00,11.4,
03-Jun-2022 13:00,10.5,
03-Jun-2022 14:00,17.4,
03-Jun-2022 15:00,18.1,
03-Jun-2022 16:00,18.9,
03-Jun-2022 17:00,30.7,
03-Jun-2022 18:00,46.3,
03-Jun-2022 19:00,63.9,
03-Jun-2022 20:00,24.2,
03-Jun-2022 21:00,21.6,
03-Jun-2022 22:00,23.1,
03-Jun-2022 23:00,21.8,
04-Jun-2022 00:00,19.2,
04-Jun-2022 01:00,24.1,
04-Jun-2022 02:00,20.2,
04-Jun-2022 03:00,18.3,
04-Jun-2022 04:00,21.2,
04-Jun-2022 05:00,16,
04-Jun-2022 06:00,15.1,
04-Jun-2022 07:00,17.8,
04-Jun-2022 08:00,14.6,
04-Jun-2022 09:00,13.1,
04-Jun-2022 10:00,11.9,
04-Jun-2022 11:00,10.6,
04-Jun-2022 12:00,11.1,
04-Jun-2022 13:00,14.8,
04-Jun-2022 14:00,10.5,
04-Jun-2022 15:00,10.6,
04-Jun-2022 16:00,10.6,
04-Jun-2022 17:00,13.7,
04-Jun-2022 18:00,12.7,
04-Jun-2022 19:00,14,
04-Jun-2022 20:00,13.4,
04-Jun-2022 21:00,23,
04-Jun-2022 22:00,15.5,
04-Jun-2022 23:00,8.5,
05-Jun-2022 00:00,8.5,
05-Jun-2022 01:00,8.4,
05-Jun-2022 02:00,6.8,
05-Jun-2022 03:00,5.9,
05-Jun-2022 04:00,7.8,
05-Jun-2022 05:00,7.1,
05-Jun-2022 06:00,5.8,
05-Jun-2022 07:00,5,
05-Jun-2022 08:00,6.1,
05-Jun-2022 09:00,3.7,
05-Jun-2022 10:00,9.8,
05-Jun-2022 11:00,6.9,
05-Jun-2022 12:00,5.4,
05-Jun-2022 13:00,6.8,
05-Jun-2022 14:00,9.5,
05-Jun-2022 15:00,12.5,
05-Jun-2022 16:00,27,
05-Jun-2022 17:00,17.9,
05-Jun-2022 18:00,20.7,
05-Jun-2022 19:00,12.9,
05-Jun-2022 20:00,11.6,
05-Jun-2022 21:00,10.8,
05-Jun-2022 22:00,10.1,
05-Jun-2022 23:00,8.3,
06-Jun-2022 00:00,10.3,
06-Jun-2022 01:00,9.5,
06-Jun-2022 02:00,9.6,
06-Jun-2022 03:00,7.8,
06-Jun-2022 04:00,7.7,
06-Jun-2022 05:00,7.2,
06-Jun-2022 06:00,10.8,
06-Jun-2022 07:00,11,
06-Jun-2022 08:00,8.4,
06-Jun-2022 09:00,10.4,
06-Jun-2022 10:00,8.2,
06-Jun-2022 11:00,11.6,
06-Jun-2022 12:00,15.9,
06-Jun-2022 13:00,13.7,
06-Jun-2022 14:00,13.1,
06-Jun-2022 15:00,14.6,
06-Jun-2022 16:00,13.4,
06-Jun-2022 17:00,18.9,
06-Jun-2022 18:00,19,
06-Jun-2022 19:00,26.6,
06-Jun-2022 20:00,21.3,
06-Jun-2022 21:00,20.2,
06-Jun-2022 22:00,19.9,
06-Jun-2022 23:00,18.6,
07-Jun-2022 00:00,16.5,
07-Jun-2022 01:00,20.4,
07-Jun-2022 02:00,19.1,
07-Jun-2022 03:00,26.8,
07-Jun-2022 04:00,12.1,
07-Jun-2022 05:00,14.1,
07-Jun-2022 06:00,19.6,
07-Jun-2022 07:00,19.4,
07-Jun-2022 08:00,19.1,
07-Jun-2022 09:00,13.3,
07-Jun-2022 10:00,14.6,
07-Jun-2022 11:00,21.3,
07-Jun-2022 12:00,19.9,
07-Jun-2022 13:00,15.8,
07-Jun-2022 14:00,20,
07-Jun-2022 15:00,22.6,
07-Jun-2022 16:00,21.3,
07-Jun-2022 17:00,21.6,
07-Jun-2022 18:00,19,
07-Jun-2022 19:00,17.8,
07-Jun-2022 20:00,16.1,
07-Jun-2022 21:00,16.8,
07-Jun-2022 22:00,16.4,
07-Jun-2022 23:00,17.1,
08-Jun-2022 00:00,15.4,
08-Jun-2022 01:00,17.8,
08-Jun-2022 02:00,20.1,
08-Jun-2022 03:00,21.2,
08-Jun-2022 04:00,29.9,
08-Jun-2022 05:00,21.4,
08-Jun-2022 06:00,27.5,
08-Jun-2022 07:00,15.6,
08-Jun-2022 08:00,13.5,
08-Jun-2022 09:00,32.8,
08-Jun-2022 10:00,22.2,
08-Jun-2022 11:00,17.2,
08-Jun-2022 12:00,13.9,
08-Jun-2022 13:00,14,
08-Jun-2022 14:00,35.4,
08-Jun-2022 15:00,25.2,
08-Jun-2022 16:00,31.5,
08-Jun-2022 17:00,22.2,
08-Jun-2022 18:00,24.3,
08-Jun-2022 19:00,23.1,
08-Jun-2022 20:00,26.5,
08-Jun-2022 21:00,27.7,
08-Jun-2022 22:00,28.6,
08-Jun-2022 23:00,25.7,
09-Jun-2022 00:00,24.4,
09-Jun-2022 01:00,26.1,
09-Jun-2022 02:00,25.8,
09-Jun-2022 03:00,25,
09-Jun-2022 04:00,30.3,
09-Jun-2022 05:00,43.1,
09-Jun-2022 06:00,25.7,
09-Jun-2022 07:00,24.7,
09-Jun-2022 08:00,31.2,
09-Jun-2022 09:00,29.2,
09-Jun-2022 10:00,36.2,
09-Jun-2022 11:00,32.7,
09-Jun-2022 12:00,25.9,
09-Jun-2022 13:00,22.4,
09-Jun-2022 14:00,31.7,
09-Jun-2022 15:00,22.9,
09-Jun-2022 16:00,22.1,
09-Jun-2022 17:00,25.2,
09-Jun-2022 18:00,25.3,
09-Jun-2022 19:00,23.7,
09-Jun-2022 20:00,21.3,
09-Jun-2022 21:00,16.5,
09-Jun-2022 22:00,16.5,
09-Jun-2022 23:00,17.2,
10-Jun-2022 00:00,29,
10-Jun-2022 01:00,18.8,
10-Jun-2022 02:00,17.2,
10-Jun-2022 03:00,16.4,
10-Jun-2022 04:00,17,
10-Jun-2022 05:00,20.3,
10-Jun-2022 06:00,16.1,
10-Jun-2022 07:00,16.1,
10-Jun-2022 08:00,11.3,
10-Jun-2022 09:00,11.6,
10-Jun-2022 10:00,16.2,
10-Jun-2022 11:00,20.5,
10-Jun-2022 12:00,22.7,
10-Jun-2022 13:00,9.7,
10-Jun-2022 14:00,28,
10-Jun-2022 15:00,21.4,
10-Jun-2022 16:00,20.8,
10-Jun-2022 17:00,29.4,
10-Jun-2022 18:00,30.3,
10-Jun-2022 19:00,20.9,
10-Jun-2022 20:00,14.6,
10-Jun-2022 21:00,12.5,
10-Jun-2022 22:00,13.8,
10-Jun-2022 23:00,13.3,
11-Jun-2022 00:00,19.2,
11-Jun-2022 01:00,17,
11-Jun-2022 02:00,25.7,
11-Jun-2022 03:00,31.5,
11-Jun-2022 04:00,27.5,
11-Jun-2022 05:00,29.3,
11-Jun-2022 06:00,19.8,
11-Jun-2022 07:00,18.6,
11-Jun-2022 08:00,19.6,
11-Jun-2022 09:00,20.3,
11-Jun-2022 10:00,20.3,
11-Jun-2022 11:00,14.9,
11-Jun-2022 12:00,15.2,
11-Jun-2022 13:00,11.6,
11-Jun-2022 14:00,30.1,
11-Jun-2022 15:00,31.7,
11-Jun-2022 16:00,24.5,
11-Jun-2022 17:00,30.8,
11-Jun-2022 18:00,47.8,
11-Jun-2022 19:00,44,
11-Jun-2022 20:00,35.2,
11-Jun-2022 21:00,33.2,
11-Jun-2022 22:00,31.1,
11-Jun-2022 23:00,31.1,
12-Jun-2022 00:00,29.8,
12-Jun-2022 01:00,29,
12-Jun-2022 02:00,29.2,
12-Jun-2022 03:00,23,
12-Jun-2022 04:00,13.7,
12-Jun-2022 05:00,19.7,
12-Jun-2022 06:00,16.8,
12-Jun-2022 07:00,5.8,
12-Jun-2022 08:00,-2.1,
12-Jun-2022 09:00,10.5,
12-Jun-2022 10:00,6.9,
12-Jun-2022 11:00,13.6,
12-Jun-2022 12:00,14.7,
12-Jun-2022 13:00,15.8,
12-Jun-2022 14:00,16.8,
12-Jun-2022 15:00,31.3,
12-Jun-2022 16:00,15.8,
12-Jun-2022 17:00,14.5,
12-Jun-2022 18:00,10.7,
12-Jun-2022 19:00,15.5,
12-Jun-2022 20:00,15.5,
12-Jun-2022 21:00,18,
12-Jun-2022 22:00,19,
12-Jun-2022 23:00,14.1,
13-Jun-2022 00:00,13.8,
13-Jun-2022 01:00,8.9,
13-Jun-2022 02:00,8.5,
13-Jun-2022 03:00,8.8,
13-Jun-2022 04:00,5.5,
13-Jun-2022 05:00,21.5,
13-Jun-2022 06:00,23.5,
13-Jun-2022 07:00,9.9,
13-Jun-2022 08:00,10.6,
13-Jun-2022 09:00,11.8,
13-Jun-2022 10:00,9.7,
13-Jun-2022 11:00,19.3,
13-Jun-2022 12:00,14.1,
13-Jun-2022 13:00,14,
13-Jun-2022 14:00,16.6,
13-Jun-2022 15:00,17.2,
13-Jun-2022 16:00,15.2,
13-Jun-2022 17:00,21.8,
13-Jun-2022 18:00,18.5,
13-Jun-2022 19:00,20.4,
13-Jun-2022 20:00,16.9,
13-Jun-2022 21:00,41.4,
13-Jun-2022 22:00,79.6,
13-Jun-2022 23:00,133.4,
14-Jun-2022 00:00,101.5,
14-Jun-2022 01:00,139.4,
14-Jun-2022 02:00,105,
14-Jun-2022 03:00,46.4,
14-Jun-2022 04:00,22.3,
14-Jun-2022 05:00,17.8,
14-Jun-2022 06:00,26,
14-Jun-2022 07:00,17.8,
14-Jun-2022 08:00,17.7,
14-Jun-2022 09:00,18.4,
14-Jun-2022 10:00,25.6,
14-Jun-2022 11:00,25.8,
14-Jun-2022 12:00,42.2,
14-Jun-2022 13:00,36.3,
14-Jun-2022 14:00,39.8,
14-Jun-2022 15:00,43.5,
14-Jun-2022 16:00,46.8,
14-Jun-2022 17:00,50.5,
14-Jun-2022 18:00,48.2,
14-Jun-2022 19:00,46.2,
14-Jun-2022 20:00,45.7,
14-Jun-2022 21:00,37.5,
14-Jun-2022 22:00,38,
14-Jun-2022 23:00,40.7,
15-Jun-2022 00:00,50.8,
15-Jun-2022 01:00,28.9,
15-Jun-2022 02:00,44.5,
15-Jun-2022 03:00,17.6,
15-Jun-2022 04:00,13.5,
15-Jun-2022 05:00,15.8,
15-Jun-2022 06:00,17.9,
15-Jun-2022 07:00,19.2,
15-Jun-2022 08:00,18.7,
15-Jun-2022 09:00,16.1,
15-Jun-2022 10:00,28.7,
15-Jun-2022 11:00,35.4,
15-Jun-2022 12:00,38.9,
15-Jun-2022 13:00,39.9,
15-Jun-2022 14:00,50.5,
15-Jun-2022 15:00,44.7,
15-Jun-2022 16:00,36,
15-Jun-2022 17:00,29.9,
15-Jun-2022 18:00,29.5,
15-Jun-2022 19:00,35.1,
15-Jun-2022 20:00,34.9,
15-Jun-2022 21:00,34.4,
15-Jun-2022 22:00,30,
15-Jun-2022 23:00,30.4,
16-Jun-2022 00:00,30.2,
16-Jun-2022 01:00,28,
16-Jun-2022 02:00,30,
16-Jun-2022 03:00,28.7,
16-Jun-2022 04:00,34.9,
16-Jun-2022 05:00,39.4,
16-Jun-2022 06:00,,AX
16-Jun-2022 07:00,,AX
16-Jun-2022 08:00,,AX
16-Jun-2022 09:00,,AX
16-Jun-2022 10:00,39.1,
16-Jun-2022 11:00,56.6,
16-Jun-2022 12:00,11.1,
16-Jun-2022 13:00,9.9,
16-Jun-2022 14:00,17.2,
16-Jun-2022 15:00,13.1,
16-Jun-2022 16:00,15.5,
16-Jun-2022 17:00,20.8,
16-Jun-2022 18:00,20.6,
16-Jun-2022 19:00,12.6,
16-Jun-2022 20:00,15.4,
16-Jun-2022 21:00,14.4,
16-Jun-2022 22:00,16.1,
16-Jun-2022 23:00,16.8,
17-Jun-2022 00:00,15.4,
17-Jun-2022 01:00,13.5,
17-Jun-2022 02:00,13.5,
17-Jun-2022 03:00,23.1,
17-Jun-2022 04:00,32.1,
17-Jun-2022 05:00,30,
17-Jun-2022 06:00,39.2,
17-Jun-2022 07:00,49.5,
17-Jun-2022 08:00,30.5,
17-Jun-2022 09:00,21.2,
17-Jun-2022 10:00,0.3,
17-Jun-2022 11:00,6.2,
17-Jun-2022 12:00,10,
17-Jun-2022 13:00,15.7,
17-Jun-2022 14:00,27.7,
17-Jun-2022 15:00,30.1,
17-Jun-2022 16:00,15.2,
17-Jun-2022 17:00,11.9,
17-Jun-2022 18:00,11.6,
17-Jun-2022 19:00,5.1,
17-Jun-2022 20:00,-0.4,
17-Jun-2022 21:00,2,
17-Jun-2022 22:00,7.6,
17-Jun-2022 23:00,18.5,
18-Jun-2022 00:00,8.1,
18-Jun-2022 01:00,7.6,
18-Jun-2022 02:00,12.8,
18-Jun-2022 03:00,14.2,
18-Jun-2022 04:00,11.4,
18-Jun-2022 05:00,8.2,
18-Jun-2022 06:00,7.4,
18-Jun-2022 07:00,10.6,
18-Jun-2022 08:00,15,
18-Jun-2022 09:00,20.6,
18-Jun-2022 10:00,10.5,
18-Jun-2022 11:00,9.8,
18-Jun-2022 12:00,13.1,
18-Jun-2022 13:00,8.6,
18-Jun-2022 14:00,23.4,
18-Jun-2022 15:00,21.9,
18-Jun-2022 16:00,26.2,
18-Jun-2022 17:00,26.2,
18-Jun-2022 18:00,73.8,
18-Jun-2022 19:00,57.8,
18-Jun-2022 20:00,18.6,
18-Jun-2022 21:00,5.2,
18-Jun-2022 22:00,16.8,
18-Jun-2022 23:00,10.5,
19-Jun-2022 00:00,5.1,
19-Jun-2022 01:00,9.8,
19-Jun-2022 02:00,10.7,
19-Jun-2022 03:00,13.8,
19-Jun-2022 04:00,17.8,
19-Jun-2022 05:00,29.2,
19-Jun-2022 06:00,16.2,
19-Jun-2022 07:00,13.8,
19-Jun-2022 08:00,8.1,
19-Jun-2022 09:00,1.6,
19-Jun-2022 10:00,3.5,
19-Jun-2022 11:00,6.8,
19-Jun-2022 12:00,9.1,
19-Jun-2022 13:00,13.6,
19-Jun-2022 14:00,16.8,
19-Jun-2022 15:00,15.9,
19-Jun-2022 16:00,17.7,
19-Jun-2022 17:00,20.6,
19-Jun-2022 18:00,15.7,
19-Jun-2022 19:00,14.1,
19-Jun-2022 20:00,13.5,
19-Jun-2022 21:00,16.4,
19-Jun-2022 22:00,13.2,
19-Jun-2022 23:00,11.8,
20-Jun-2022 00:00,15.9,
20-Jun-2022 01:00,15,
20-Jun-2022 02:00,15.7,
20-Jun-2022 03:00,15.4,
20-Jun-2022 04:00,12.3,
20-Jun-2022 05:00,15.2,
20-Jun-2022 06:00,17.4,
20-Jun-2022 07:00,23.3,
20-Jun-2022 08:00,21.8,
20-Jun-2022 09:00,12.9,
20-Jun-2022 10:00,10.9,
20-Jun-2022 11:00,9,
20-Jun-2022 12:00,12.2,
20-Jun-2022 13:00,15.2,
20-Jun-2022 14:00,9.5,
20-Jun-2022 15:00,13.3,
20-Jun-2022 16:00,16.6,
20-Jun-2022 17:00,17.1,
20-Jun-2022 18:00,14.8,
20-Jun-2022 19:00,11.6,
20-Jun-2022 20:00,11,
20-Jun-2022 21:00,12.2,
20-Jun-2022 22:00,13.3,
20-Jun-2022 23:00,20.7,
21-Jun-2022 00:00,10.8,
21-Jun-2022 01:00,10.2,
21-Jun-2022 02:00,10.8,
21-Jun-2022 03:00,12.6,
21-Jun-2022 04:00,15.5,
21-Jun-2022 05:00,16.7,
21-Jun-2022 06:00,18.3,
21-Jun-2022 07:00,25.6,
21-Jun-2022 08:00,18.6,
21-Jun-2022 09:00,17.6,
21-Jun-2022 10:00,17.6,
21-Jun-2022 11:00,10.5,
21-Jun-2022 12:00,11.9,
21-Jun-2022 13:00,12.6,
21-Jun-2022 14:00,28.7,
21-Jun-2022 15:00,12.7,
21-Jun-2022 16:00,15.6,
21-Jun-2022 17:00,12.3,
21-Jun-2022 18:00,15.2,
21-Jun-2022 19:00,16.3,
21-Jun-2022 20:00,15.3,
21-Jun-2022 21:00,28.9,
21-Jun-2022 22:00,28,
21-Jun-2022 23:00,16,
22-Jun-2022 00:00,14.9,
22-Jun-2022 01:00,17.8,
22-Jun-2022 02:00,19.2,
22-Jun-2022 03:00,37.2,
22-Jun-2022 04:00,41.2,
22-Jun-2022 05:00,23.6,
22-Jun-2022 06:00,12.3,
22-Jun-2022 07:00,19.9,
22-Jun-2022 08:00,36.5,
22-Jun-2022 09:00,11.7,
22-Jun-2022 10:00,22.5,
22-Jun-2022 11:00,25.9,
22-Jun-2022 12:00,17.3,
22-Jun-2022 13:00,1.4,
22-Jun-2022 14:00,6.8,
22-Jun-2022 15:00,7.5,
22-Jun-2022 16:00,4.8,
22-Jun-2022 17:00,6.8,
22-Jun-2022 18:00,29.2,
22-Jun-2022 19:00,14,
22-Jun-2022 20:00,14.1,
22-Jun-2022 21:00,7.5,
22-Jun-2022 22:00,3,
22-Jun-2022 23:00,6.7,
23-Jun-2022 00:00,6.6,
23-Jun-2022 01:00,2.6,
23-Jun-2022 02:00,3.4,
23-Jun-2022 03:00,6.8,
23-Jun-2022 04:00,4.2,
23-Jun-2022 05:00,10.1,
23-Jun-2022 06:00,4.9,
23-Jun-2022 07:00,10.7,
23-Jun-2022 08:00,3.6,
23-Jun-2022 09:00,5,
23-Jun-2022 10:00,7.3,
23-Jun-2022 11:00,7.7,
23-Jun-2022 12:00,4.6,
23-Jun-2022 13:00,4.3,
23-Jun-2022 14:00,-0.9,
23-Jun-2022 15:00,4,
23-Jun-2022 16:00,8.8,
23-Jun-2022 17:00,12.8,
23-Jun-2022 18:00,17.1,
23-Jun-2022 19:00,13.1,
23-Jun-2022 20:00,14.9,
23-Jun-2022 21:00,15,
23-Jun-2022 22:00,12.3,
23-Jun-2022 23:00,9.7,
24-Jun-2022 00:00,11.2,
24-Jun-2022 01:00,8.7,
24-Jun-2022 02:00,10.6,
24-Jun-2022 03:00,11.1,
24-Jun-2022 04:00,10.2,
24-Jun-2022 05:00,11.8,
24-Jun-2022 06:00,13.4,
24-Jun-2022 07:00,14.9,
24-Jun-2022 08:00,20.5,
24-Jun-2022 09:00,14.8,
24-Jun-2022 10:00,18.4,
24-Jun-2022 11:00,15.6,
24-Jun-2022 12:00,17.2,
24-Jun-2022 13:00,13.1,
24-Jun-2022 14:00,20.8,
24-Jun-2022 15:00,14.4,
24-Jun-2022 16:00,20.3,
24-Jun-2022 17:00,19.4,
24-Jun-2022 18:00,18.2,
24-Jun-2022 19:00,36.8,
24-Jun-2022 20:00,10.6,
24-Jun-2022 21:00,20.7,
24-Jun-2022 22:00,,AV
24-Jun-2022 23:00,,AV
25-Jun-2022 00:00,,AV
25-Jun-2022 01:00,,AV
25-Jun-2022 02:00,,AV
25-Jun-2022 03:00,22.6,
25-Jun-2022 04:00,21.1,
25-Jun-2022 05:00,20.2,
25-Jun-2022 06:00,24,
25-Jun-2022 07:00,9.8,
25-Jun-2022 08:00,20.5,
25-Jun-2022 09:00,14.1,
25-Jun-2022 10:00,4.1,
25-Jun-2022 11:00,7.8,
25-Jun-2022 12:00,8.9,
25-Jun-2022 13:00,7.5,
25-Jun-2022 14:00,2.6,
25-Jun-2022 15:00,5.8,
25-Jun-2022 16:00,13.8,
25-Jun-2022 17:00,24.3,
25-Jun-2022 18:00,31,
25-Jun-2022 19:00,31.1,
25-Jun-2022 20:00,24,
25-Jun-2022 21:00,13.9,
25-Jun-2022 22:00,16.3,
25-Jun-2022 23:00,16.9,
26-Jun-2022 00:00,12.9,
26-Jun-2022 01:00,16,
26-Jun-2022 02:00,14.6,
26-Jun-2022 03:00,13.9,
26-Jun-2022 04:00,14.5,
26-Jun-2022 05:00,14.7,
26-Jun-2022 06:00,13.6,
26-Jun-2022 07:00,14.6,
26-Jun-2022 08:00,13.8,
26-Jun-2022 09:00,14.9,
26-Jun-2022 10:00,7.2,
26-Jun-2022 11:00,7.7,
26-Jun-2022 12:00,9.4,
26-Jun-2022 13:00,5.1,
26-Jun-2022 14:00,5.2,
26-Jun-2022 15:00,4.2,
26-Jun-2022 16:00,19.2,
26-Jun-2022 17:00,16.7,
26-Jun-2022 18:00,25,
26-Jun-2022 19:00,23.7,
26-Jun-2022 20:00,18.9,
26-Jun-2022 21:00,17.1,
26-Jun-2022 22:00,16.1,
26-Jun-2022 23:00,17.2,
27-Jun-2022 00:00,16.2,
27-Jun-2022 01:00,16.2,
27-Jun-2022 02:00,15.6,
27-Jun-2022 03:00,17.5,
27-Jun-2022 04:00,16.5,
27-Jun-2022 05:00,18.9,
27-Jun-2022 06:00,10.5,
27-Jun-2022 07:00,16.2,
27-Jun-2022 08:00,13.6,
27-Jun-2022 09:00,16,
27-Jun-2022 10:00,17.6,
27-Jun-2022 11:00,16.4,
27-Jun-2022 12:00,11.3,
27-Jun-2022 13:00,12.4,
27-Jun-2022 14:00,9.2,
27-Jun-2022 15:00,14.2,
27-Jun-2022 16:00,20,
27-Jun-2022 17:00,21.3,
27-Jun-2022 18:00,17.2,
27-Jun-2022 19:00,18.4,
27-Jun-2022 20:00,17.4,
27-Jun-2022 21:00,17,
27-Jun-2022 22:00,16.9,
27-Jun-2022 23:00,15,
28-Jun-2022 00:00,16.8,
28-Jun-2022 01:00,14.2,
28-Jun-2022 02:00,15.4,
28-Jun-2022 03:00,15.2,
28-Jun-2022 04:00,15.8,
28-Jun-2022 05:00,22.7,
28-Jun-2022 06:00,16.5,
28-Jun-2022 07:00,15.2,
28-Jun-2022 08:00,23.6,
28-Jun-2022 09:00,96.2,
28-Jun-2022 10:00,37.1,
28-Jun-2022 11:00,28.4,
28-Jun-2022 12:00,22.3,
28-Jun-2022 13:00,19.7,
28-Jun-2022 14:00,9.6,
28-Jun-2022 15:00,24.4,
28-Jun-2022 16:00,19.3,
28-Jun-2022 17:00,19.7,
28-Jun-2022 18:00,22,
28-Jun-2022 19:00,21.2,
28-Jun-2022 20:00,13.2,
28-Jun-2022 21:00,14,
28-Jun-2022 22:00,14.4,
28-Jun-2022 23:00,14,
29-Jun-2022 00:00,16.5,
29-Jun-2022 01:00,15.2,
29-Jun-2022 02:00,17.5,
29-Jun-2022 03:00,23.6,
29-Jun-2022 04:00,16.7,
29-Jun-2022 05:00,28.1,
29-Jun-2022 06:00,22.8,
29-Jun-2022 07:00,,BA
29-Jun-2022 08:00,,BA
29-Jun-2022 09:00,,BA
29-Jun-2022 10:00,21.7,
29-Jun-2022 11:00,22.3,
29-Jun-2022 12:00,16.8,
29-Jun-2022 13:00,17.2,
29-Jun-2022 14:00,12.6,
29-Jun-2022 15:00,14.8,
29-Jun-2022 16:00,18.4,
29-Jun-2022 17:00,17.7,
29-Jun-2022 18:00,24.3,
29-Jun-2022 19:00,15.5,
29-Jun-2022 20:00,17.4,
29-Jun-2022 21:00,15.2,
29-Jun-2022 22:00,16,
29-Jun-2022 23:00,17.2,
30-Jun-2022 00:00,14.2,
30-Jun-2022 01:00,14.5,
30-Jun-2022 02:00,12.6,
30-Jun-2022 03:00,13.4,
30-Jun-2022 04:00,14.6,
30-Jun-2022 05:00,19.8,
30-Jun-2022 06:00,18.8,
30-Jun-2022 07:00,16.4,
30-Jun-2022 08:00,13.3,
30-Jun-2022 09:00,18,
30-Jun-2022 10:00,12.4,
30-Jun-2022 11:00,12,
30-Jun-2022 12:00,9.3,
30-Jun-2022 13:00,5.9,
30-Jun-2022 14:00,8.6,
30-Jun-2022 15:00,11,
30-Jun-2022 16:00,9.9,
30-Jun-2022 17:00,5,
30-Jun-2022 18:00,8.7,
30-Jun-2022 19:00,11.4,
30-Jun-2022 20:00,12.4,
30-Jun-2022 21:00,10.4,
30-Jun-2022 22:00,8.7,
30-Jun-2022 23:00,9,
